Volver al catálogo

CZ-4C DEB

ActivoSSO
NORAD 35251·DEBRIS·🇨🇳 China

Lanzado Nov 11, 2007 desde Taiyuan Satellite Launch Center

Loading…

Próximos Pases (próximas 24 horas)

TLE

ActualizadoSource: Space-Track

Época: Sep 14, 2026, 06:23 UTC

1 35251U 07055F   26257.26622012  .00004656  00000-0  66145-3 0  9992
2 35251  97.9206 191.4239 0136186 307.3034  51.5823 14.71202316990879

Sigue CZ-4C DEB en tiempo real con AllMySat

Download on the App Store